WZ8H Weather Reports


time (UTC)temp
C
wind
direction
speed
KPH
gust
KPH
rain 1hr
cm
rain 24hr
cm
rain mn
cm
humidity
%
barometer
mb
20260510225721 13 109 4.8 11.3 0.00 0.00 0.00 70 1018.3
20260510225225 13 101 4.8 11.3 0.00 0.00 0.00 68 1018.2
20260510224650 13 103 4.8 9.7 0.00 0.00 0.00 69 1018.4
20260510224126 13 117 4.8 6.4 0.00 0.00 0.00 70 1018.4
20260510223558 13 105 4.8 9.7 0.00 0.00 0.00 68 1018.3
20260510223055 13 111 6.4 11.3 0.00 0.00 0.00 67 1018.4
20260510222527 13 107 4.8 11.3 0.00 0.00 0.00 66 1018.3
20260510222023 14 112 4.8 11.3 0.00 0.00 0.00 62 1018.2
20260510221516 14 96 4.8 12.9 0.00 0.00 0.00 64 1018.2
20260510220951 14 101 4.8 12.9 0.00 0.00 0.00 61 1018.0
20260510220422 14 106 6.4 14.5 0.00 0.00 0.00 63 1017.9
20260510215919 14 81 4.8 14.5 0.00 0.00 0.00 62 1017.9
20260510215402 14 115 4.8 9.7 0.00 0.00 0.00 61 1017.9
20260510214900 14 112 4.8 9.7 0.00 0.13 0.00 61 1017.9
20260510214402 14 108 4.8 9.7 0.00 0.18 0.00 62 1017.9
20260510213900 14 117 4.8 9.7 0.00 0.18 0.00 62 1017.8
20260510213401 14 111 4.8 9.7 0.00 0.18 0.00 61 1017.6
20260510212858 14 113 6.4 9.7 0.00 0.18 0.00 62 1017.4
20260510212331 15 113 6.4 12.9 0.00 0.18 0.00 61 1017.3
20260510211803 15 100 8.0 12.9 0.00 0.18 0.00 58 1017.3
20260510211259 15 78 8.0 16.1 0.00 0.18 0.00 46 1017.3
20260510210755 15 86 8.0 16.1 0.00 0.18 0.00 43 1017.3
20260510210257 15 90 6.4 14.5 0.00 0.18 0.00 47 1017.3
20260510205728 15 90 4.8 14.5 0.00 0.18 0.00 44 1017.2
20260510205219 15 98 4.8 11.3 0.00 0.18 0.00 48 1017.2
20260510204652 15 117 6.4 12.9 0.00 0.18 0.00 49 1017.3
20260510204147 15 86 9.7 16.1 0.00 0.18 0.00 51 1017.4
20260510203623 15 88 9.7 16.1 0.00 0.18 0.00 47 1017.4
20260510203058 15 83 6.4 16.1 0.00 0.18 0.00 46 1017.5
20260510202558 15 74 6.4 12.9 0.00 0.18 0.00 48 1017.5
20260510202105 15 91 6.4 12.9 0.00 0.18 0.00 48 1017.6
20260510201558 15 98 8.0 12.9 0.00 0.18 0.00 48 1017.6
20260510201059 15 88 8.0 12.9 0.00 0.18 0.00 45 1017.6
20260510200557 15 84 8.0 14.5 0.00 0.18 0.00 46 1017.6
20260510200030 15 94 8.0 14.5 0.00 0.18 0.00 50 1017.6
20260510195516 15 89 11.3 14.5 0.00 0.18 0.00 47 1017.8
20260510195019 15 87 9.7 14.5 0.00 0.18 0.00 44 1017.8
20260510194452 15 90 6.4 14.5 0.00 0.18 0.00 48 1017.6
20260510193949 15 105 4.8 14.5 0.00 0.18 0.00 45 1017.8
20260510193422 15 119 4.8 11.3 0.00 0.18 0.00 48 1017.8
20260510192919 15 91 6.4 12.9 0.00 0.18 0.00 49 1017.9
20260510192351 15 96 6.4 12.9 0.00 0.18 0.00 49 1017.8
20260510191850 15 86 6.4 12.9 0.00 0.18 0.00 49 1017.9
20260510191344 15 94 6.4 12.9 0.00 0.18 0.00 52 1018.0
20260510190841 15 89 6.4 12.9 0.00 0.18 0.00 51 1018.0
20260510190315 14 115 8.0 14.5 0.00 0.18 0.00 53 1018.0
20260510185747 14 90 8.0 14.5 0.00 0.18 0.00 54 1018.0
20260510185245 14 86 8.0 12.9 0.00 0.18 0.00 55 1018.0
20260510184718 14 94 6.4 12.9 0.00 0.18 0.00 54 1018.0
20260510184216 14 87 4.8 9.7 0.00 0.18 0.00 52 1017.9
20260510183646 14 89 4.8 11.3 0.00 0.18 0.00 54 1017.9
20260510183143 15 90 4.8 11.3 0.00 0.18 0.00 53 1017.9
20260510182637 15 84 4.8 9.7 0.00 0.18 0.00 55 1017.9
20260510182134 15 111 3.2 6.4 0.00 0.18 0.00 54 1017.9
20260510181631 15 109 3.2 6.4 0.00 0.18 0.00 60 1017.8
20260510181128 15 82 4.8 11.3 0.00 0.18 0.00 60 1017.6
20260510180613 14 85 4.8 11.3 0.00 0.18 0.00 61 1017.6
20260510180106 14 86 4.8 9.7 0.00 0.18 0.00 63 1017.6
20260510175603 13 105 3.2 6.4 0.00 0.18 0.00 65 1017.7
20260510175035 13 105 4.8 6.4 0.00 0.18 0.00 66 1017.7
20260510174511 13 116 4.8 9.7 0.00 0.18 0.00 65 1017.6
20260510174012 14 118 4.8 14.5 0.00 0.18 0.00 66 1017.6
20260510173515 14 89 6.4 14.5 0.00 0.18 0.00 66 1017.5
20260510172948 13 104 4.8 9.7 0.00 0.18 0.00 65 1017.5
20260510172448 14 109 4.8 12.9 0.00 0.18 0.00 65 1017.7
20260510171944 14 86 4.8 12.9 0.00 0.18 0.00 66 1017.7
20260510171439 14 88 4.8 9.7 0.00 0.18 0.00 66 1017.8
20260510170936 14 94 4.8 9.7 0.00 0.18 0.00 67 1017.8
20260510170439 13 96 4.8 9.7 0.00 0.18 0.00 65 1017.9
20260510165918 13 119 4.8 9.7 0.00 0.18 0.00 65 1017.9
20260510165413 13 92 3.2 6.4 0.00 0.18 0.00 64 1017.8
20260510164844 13 104 3.2 6.4 0.00 0.18 0.00 64 1017.8
20260510164330 13 128 4.8 6.4 0.00 0.18 0.00 65 1017.8
20260510163827 13 107 4.8 6.4 0.00 0.18 0.00 65 1017.9
20260510163328 13 86 4.8 11.3 0.00 0.18 0.00 65 1017.7
20260510162814 13 86 4.8 11.3 0.00 0.18 0.00 65 1017.6
20260510162252 13 86 4.8 9.7 0.00 0.18 0.00 65 1017.6
20260510161753 12 126 4.8 9.7 0.00 0.18 0.00 66 1017.6
20260510161254 12 109 6.4 12.9 0.00 0.18 0.00 67 1017.5
20260510160731 12 93 8.0 12.9 0.00 0.18 0.00 66 1017.3
20260510160206 12 86 8.0 12.9 0.00 0.18 0.00 66 1017.3
20260510155645 12 90 8.0 12.9 0.00 0.18 0.00 66 1017.2
20260510155143 12 90 8.0 12.9 0.00 0.18 0.00 65 1017.2
20260510154644 12 88 8.0 14.5 0.00 0.18 0.00 64 1017.1
20260510154144 12 96 8.0 14.5 0.00 0.18 0.00 66 1017.2
20260510153618 12 86 6.4 12.9 0.00 0.18 0.00 65 1017.1
20260510153054 12 90 8.0 16.1 0.00 0.18 0.00 66 1017.1
20260510152551 12 90 8.0 16.1 0.00 0.18 0.00 66 1017.0
20260510152052 12 90 8.0 14.5 0.00 0.18 0.00 68 1017.1
20260510151550 12 82 8.0 14.5 0.00 0.18 0.00 65 1017.0
20260510151029 12 74 8.0 14.5 0.00 0.18 0.00 65 1017.0
20260510150457 12 109 8.0 16.1 0.00 0.18 0.00 65 1016.9
20260510145955 12 84 8.0 16.1 0.00 0.18 0.00 64 1016.8
20260510145433 12 94 8.0 14.5 0.00 0.18 0.00 65 1016.7
20260510144908 12 83 8.0 14.5 0.00 0.18 0.00 65 1016.8
20260510144338 12 90 9.7 14.5 0.00 0.18 0.00 67 1016.6
20260510143843 12 88 9.7 14.5 0.00 0.18 0.00 66 1016.6
20260510143308 12 95 9.7 16.1 0.00 0.18 0.00 65 1016.6
20260510142742 12 88 12.9 17.7 0.00 0.18 0.00 65 1016.6
20260510142212 12 57 12.9 19.3 0.00 0.18 0.00 66 1016.5
20260510141644 12 68 12.9 19.3 0.00 0.18 0.00 66 1016.5
20260510141142 12 89 9.7 17.7 0.00 0.18 0.00 65 1016.4
20260510140614 12 86 9.7 16.1 0.00 0.18 0.00 67 1016.5
20260510140112 12 86 9.7 17.7 0.00 0.18 0.00 66 1016.4
20260510135548 12 96 8.0 17.7 0.00 0.18 0.00 65 1016.5
20260510135042 12 85 8.0 17.7 0.00 0.18 0.00 67 1016.4
20260510134539 12 80 9.7 19.3 0.00 0.18 0.00 67 1016.4
20260510134015 11 111 11.3 19.3 0.00 0.18 0.00 66 1016.3
20260510133510 11 95 9.7 19.3 0.00 0.18 0.00 67 1016.3
20260510132942 11 80 9.7 19.3 0.00 0.18 0.00 65 1016.2
20260510132439 11 94 9.7 20.9 0.00 0.18 0.00 67 1016.0
20260510131914 11 75 9.7 20.9 0.00 0.18 0.00 66 1016.0
20260510131346 11 80 8.0 19.3 0.00 0.18 0.00 66 1015.9
20260510130845 11 96 8.0 16.1 0.00 0.18 0.00 65 1015.9
20260510130316 11 85 8.0 16.1 0.00 0.18 0.00 67 1015.8
20260510125813 11 0 9.7 19.3 0.00 0.18 0.00 65 1015.5
20260510125246 11 70 9.7 19.3 0.00 0.18 0.00 64 1015.5
20260510125016 11 50 8.0 17.7 0.00 0.18 0.00 64 1015.5
20260510124218 11 28 8.0 19.3 0.00 0.18 0.00 65 1015.4
20260510123653 10 286 9.7 19.3 0.00 0.18 0.00 64 1015.4
20260510123147 11 107 9.7 22.5 0.00 0.18 0.00 64 1015.3
20260510122640 11 26 8.0 20.9 0.00 0.18 0.00 62 1015.3
20260510122138 11 118 9.7 22.5 0.00 0.18 0.00 64 1015.2
20260510121610 11 88 11.3 22.5 0.00 0.18 0.00 66 1015.1
20260510121106 11 32 11.3 22.5 0.00 0.18 0.00 67 1015.1
20260510120540 10 67 9.7 22.5 0.00 0.18 0.00 68 1015.0
20260510120037 10 87 9.7 20.9 0.00 0.18 0.00 66 1014.9
20260510115540 10 21 11.3 24.1 0.00 0.18 0.00 67 1014.9
20260510115008 10 74 9.7 24.1 0.00 0.18 0.00 66 1014.7
20260510114441 10 100 11.3 22.5 0.00 0.18 0.00 67 1014.6
20260510114208 10 5 11.3 24.1 0.00 0.18 0.00 68 1014.5
20260510113412 10 59 9.7 24.1 0.00 0.18 0.00 66 1014.5
20260510112847 10 340 9.7 20.9 0.00 0.18 0.00 68 1014.3
20260510112319 10 146 11.3 20.9 0.00 0.18 0.00 69 1014.2
20260510111816 10 39 11.3 22.5 0.00 0.18 0.00 68 1014.1
20260510111248 10 88 12.9 22.5 0.00 0.18 0.00 70 1014.0
20260510110747 10 51 11.3 22.5 0.00 0.18 0.00 71 1013.8
20260510110244 10 26 12.9 27.4 0.00 0.18 0.00 72 1013.7
20260510105719 9 94 12.9 27.4 0.00 0.18 0.00 71 1013.7
20260510105148 10 92 9.7 19.3 0.00 0.18 0.00 73 1013.6
20260510104645 10 82 9.7 19.3 0.00 0.18 0.00 72 1013.6
20260510104119 10 69 12.9 24.1 0.00 0.18 0.00 73 1013.5
20260510103616 10 55 12.9 24.1 0.00 0.18 0.00 72 1013.4
20260510103114 10 100 12.9 27.4 0.00 0.18 0.00 75 1013.2
20260510102548 10 31 11.3 27.4 0.00 0.18 0.00 75 1013.1
20260510102044 10 81 9.7 24.1 0.00 0.18 0.00 77 1013.0
20260510101518 10 22 9.7 24.1 0.00 0.18 0.00 78 1012.8
20260510100951 10 44 9.7 22.5 0.00 0.18 0.00 80 1012.8
20260510100427 10 36 9.7 22.5 0.00 0.18 0.00 80 1012.8
20260510095858 10 48 11.3 22.5 0.00 0.18 0.00 80 1012.6
20260510095355 10 101 9.7 20.9 0.00 0.18 0.00 79 1012.6
20260510094828 10 42 9.7 19.3 0.00 0.18 0.00 78 1012.6
20260510094602 10 78 9.7 20.9 0.00 0.18 0.00 78 1012.3
20260510094026 10 94 9.7 20.9 0.00 0.18 0.00 76 1012.3
20260510093257 10 35 9.7 19.3 0.00 0.18 0.00 76 1012.2
20260510092752 10 98 8.0 17.7 0.00 0.18 0.00 75 1012.2
20260510092228 11 51 6.4 17.7 0.00 0.18 0.00 76 1012.0
20260510091700 11 88 8.0 17.7 0.00 0.18 0.00 74 1012.0
20260510091414 11 62 9.7 17.7 0.00 0.18 0.00 73 1011.8
20260510090632 11 85 8.0 17.7 0.00 0.18 0.00 72 1011.8
20260510090131 11 86 8.0 16.1 0.00 0.18 0.00 71 1011.8
20260510085606 11 42 8.0 16.1 0.00 0.18 0.00 71 1011.7
20260510085106 11 72 8.0 16.1 0.00 0.18 0.00 70 1011.6
20260510084539 11 75 8.0 16.1 0.00 0.18 0.00 72 1011.5
20260510084038 11 106 8.0 16.1 0.00 0.18 0.00 72 1011.5
20260510083536 11 85 6.4 14.5 0.00 0.18 0.00 72 1011.4
20260510083033 11 44 6.4 12.9 0.00 0.18 0.00 73 1011.4
20260510083004 11 76 4.8 12.9 0.00 0.18 0.00 73 1011.4
20260510082010 11 82 4.8 11.3 0.00 0.18 0.00 75 1011.4
20260510081734 11 62 3.2 11.3 0.00 0.18 0.00 75 1011.4
20260510081005 11 70 3.2 8.0 0.00 0.18 0.00 77 1011.4
20260510080442 11 78 4.8 11.3 0.00 0.18 0.00 77 1011.1
20260510075946 11 76 4.8 11.3 0.00 0.18 0.00 77 1010.9
20260510075418 11 44 4.8 11.3 0.00 0.18 0.00 78 1010.9
20260510074921 11 82 3.2 11.3 0.00 0.18 0.00 79 1010.7
20260510074407 11 53 3.2 8.0 0.00 0.18 0.00 79 1010.7
20260510073916 11 36 3.2 8.0 0.00 0.18 0.00 79 1010.6
20260510073350 11 34 4.8 14.5 0.00 0.18 0.00 79 1010.5
20260510073109 11 76 4.8 14.5 0.00 0.18 0.00 79 1010.5
20260510072331 11 92 4.8 11.3 0.00 0.18 0.00 79 1010.4
20260510071813 11 53 6.4 12.9 0.00 0.18 0.00 79 1010.2
20260510071313 11 86 8.0 12.9 0.00 0.18 0.00 79 1010.2
20260510070812 11 85 6.4 12.9 0.00 0.18 0.00 79 1010.1
20260510070312 11 88 8.0 14.5 0.00 0.18 0.00 80 1010.0
20260510065800 11 65 8.0 16.1 0.00 0.18 0.00 79 1010.0
20260510065253 11 82 6.4 16.1 0.00 0.18 0.00 79 1009.9
20260510064750 11 30 6.4 14.5 0.00 0.18 0.00 78 1010.0
20260510064227 11 28 6.4 14.5 0.00 0.18 0.00 78 1010.0
20260510063713 11 100 8.0 17.7 0.00 0.18 0.00 78 1010.0
20260510063212 11 82 9.7 20.9 0.00 0.18 0.00 78 1009.9
20260510062643 11 47 9.7 20.9 0.00 0.18 0.00 77 1009.6
20260510062631 12 84 11.3 20.9 0.00 0.18 0.00 77 1009.6
20260510061619 12 97 12.9 20.9 0.00 0.18 0.00 77 1009.4
20260510061055 12 55 11.3 20.9 0.00 0.18 0.00 77 1009.4
20260510060554 12 130 11.3 22.5 0.00 0.18 0.00 78 1009.4
20260510060101 12 72 11.3 25.7 0.00 0.18 0.00 78 1009.3
20260510055555 12 66 11.3 25.7 0.00 0.18 0.00 78 1009.3
20260510055041 12 87 12.9 30.6 0.00 0.18 0.00 77 1009.1
20260510054535 12 60 14.5 32.2 0.00 0.18 0.00 77 1009.1
20260510054011 12 60 14.5 32.2 0.00 0.18 0.00 76 1009.0
20260510053442 12 48 14.5 35.4 0.00 0.18 0.00 76 1008.9
20260510052917 12 39 14.5 35.4 0.00 0.18 0.00 75 1008.7
20260510052412 12 74 16.1 30.6 0.00 0.18 0.00 76 1008.7
20260510052132 12 33 14.5 30.6 0.00 0.18 0.00 76 1008.7
20260510051358 12 69 12.9 27.4 0.00 0.18 0.00 76 1008.6
20260510050854 12 70 12.9 27.4 0.00 0.18 0.00 76 1008.5
20260510050350 13 42 11.3 27.4 0.00 0.18 0.00 76 1008.3
20260510045849 13 94 11.3 24.1 0.00 0.18 0.00 75 1008.3
20260510045326 14 69 12.9 30.6 0.00 0.18 0.00 74 1008.2
20260510044828 14 19 11.3 30.6 0.00 0.18 0.00 73 1007.8
20260510044302 15 44 9.7 29.0 0.00 0.18 0.00 72 1007.6
20260510043805 15 325 9.7 29.0 0.00 0.18 0.00 73 1007.4
20260510043235 15 288 6.4 16.1 0.00 0.18 0.00 77 1007.2
20260510042718 15 257 6.4 14.5 0.00 0.18 0.00 79 1006.8
20260510042211 15 321 6.4 14.5 0.00 0.18 0.00 81 1006.9
20260510041709 15 306 6.4 16.1 0.00 0.18 0.00 82 1006.8
20260510041205 15 275 4.8 16.1 0.00 0.18 0.00 82 1006.7
20260510040703 15 257 3.2 14.5 0.00 0.18 0.00 81 1006.5
20260510040144 16 307 4.8 14.5 0.00 0.18 0.00 81 1006.4
20260510035613 16 240 6.4 14.5 0.00 0.18 0.18 79 1006.2
20260510035049 16 309 4.8 14.5 0.00 0.18 0.18 79 1006.1
20260510034520 16 274 4.8 11.3 0.00 0.18 0.18 80 1005.9
20260510034008 15 252 4.8 16.1 0.00 0.18 0.18 80 1005.8
20260510033447 15 248 4.8 16.1 0.00 0.18 0.18 80 1005.8
20260510032942 15 225 4.8 12.9 0.00 0.18 0.18 80 1005.7
20260510032707 15 245 3.2 12.9 0.00 0.18 0.18 81 1005.5
20260510032135 15 251 3.2 9.7 0.00 0.18 0.18 81 1005.5
20260510031415 15 273 3.2 9.7 0.00 0.18 0.18 80 1005.5
20260510030923 15 201 4.8 9.7 0.00 0.18 0.18 80 1005.4
20260510030352 15 192 3.2 9.7 0.00 0.18 0.18 81 1005.4
20260510025835 15 265 3.2 9.7 0.00 0.18 0.18 81 1005.3
20260510025316 15 218 3.2 8.0 0.00 0.18 0.18 80 1005.3
20260510024753 15 219 4.8 14.5 0.00 0.18 0.18 80 1005.4
20260510024300 15 274 4.8 14.5 0.00 0.18 0.18 80 1005.4
20260510023751 15 176 4.8 8.0 0.00 0.18 0.18 80 1005.3
20260510023244 15 252 4.8 14.5 0.00 0.18 0.18 80 1005.2
20260510022741 15 250 4.8 14.5 0.00 0.18 0.18 81 1005.1
20260510022234 15 195 4.8 11.3 0.00 0.18 0.18 81 1005.0
20260510021732 15 204 3.2 9.7 0.00 0.18 0.18 81 1005.1
20260510021230 16 269 3.2 9.7 0.00 0.18 0.18 81 1005.1
20260510020705 16 259 4.8 11.3 0.00 0.18 0.18 80 1005.1
20260510020147 16 232 6.4 17.7 0.00 0.18 0.18 80 1005.1
20260510015645 16 247 6.4 17.7 0.00 0.18 0.18 80 1005.2
20260510015145 16 200 6.4 16.1 0.00 0.18 0.18 81 1005.0
20260510014616 15 290 6.4 12.9 0.00 0.18 0.18 82 1005.0
20260510014055 15 225 4.8 12.9 0.00 0.18 0.18 82 1005.0
20260510013553 15 234 4.8 9.7 0.00 0.18 0.18 82 1005.0
20260510013045 15 225 3.2 9.7 0.00 0.18 0.18 82 1004.6
20260510012524 15 260 3.2 6.4 0.00 0.18 0.18 82 1004.6
20260510012028 15 260 3.2 6.4 0.00 0.18 0.18 82 1004.5
20260510011525 15 275 3.2 6.4 0.00 0.18 0.18 82 1004.5
20260510011026 15 223 3.2 6.4 0.00 0.18 0.18 81 1004.4
20260510010523 15 223 3.2 6.4 0.00 0.18 0.18 81 1004.4
20260510005956 15 215 3.2 6.4 0.00 0.18 0.18 81 1004.4
20260510005453 16 208 3.2 9.7 0.00 0.18 0.18 80 1004.3
20260510004949 16 210 3.2 12.9 0.00 0.18 0.18 80 1004.3
20260510004438 16 271 3.2 12.9 0.00 0.18 0.18 79 1004.3
20260510003945 16 252 4.8 11.3 0.00 0.18 0.18 79 1004.3
20260510003412 16 245 4.8 14.5 0.00 0.18 0.18 78 1004.3
20260510002847 16 223 4.8 14.5 0.00 0.18 0.18 78 1004.3
20260510002323 16 256 6.4 16.1 0.00 0.18 0.18 78 1004.3
20260510001755 16 232 6.4 16.1 0.00 0.18 0.18 77 1004.2
20260510001251 16 267 6.4 16.1 0.00 0.18 0.18 77 1004.1
20260510000727 16 294 6.4 14.5 0.00 0.18 0.18 77 1004.2
20260510000157 16 242 6.4 16.1 0.00 0.18 0.18 77 1004.2
20260509235655 16 259 6.4 14.5 0.00 0.18 0.18 78 1004.3
20260509235130 16 228 6.4 17.7 0.00 0.18 0.18 79 1004.2
20260509234604 16 254 6.4 17.7 0.00 0.18 0.18 78 1004.2
20260509234058 16 98 4.8 16.1 0.00 0.18 0.18 78 1004.1
20260509233603 16 229 4.8 12.9 0.00 0.18 0.18 78 1004.1
20260509233030 16 252 6.4 17.7 0.00 0.18 0.18 77 1004.1
20260509232459 16 262 8.0 17.7 0.00 0.18 0.18 78 1004.1
20260509232003 16 259 8.0 16.1 0.00 0.18 0.18 78 1004.1
20260509231453 16 261 8.0 16.1 0.00 0.18 0.18 78 1004.0
20260509230958 16 246 8.0 19.3 0.00 0.18 0.18 78 1004.1
20260509230443 16 263 8.0 19.3 0.00 0.20 0.18 79 1004.0
20260509230203 16 239 8.0 16.1 0.00 0.20 0.18 80 1004.0